Location: ???? ????
(41.4149°N, 22.8816°E)
Time: 14:46:15
(UTC+00:00)

Cosmos 1666 - Pass Details

Date: 14 July 2020
Orbit: 496 x 521 km, 82.5° (Epoch: 04 August)

Event Time Altitude Azimuth Distance (km) Brightness Sun altitude
Exits shadow 01:13:08 35° 250° (WSW) 840 3.3 -17.0°
Maximum altitude 01:13:56 40° 282° (WNW) 763 3.3 -16.9°
Drops below altitude 10° 01:17:31 10° 353° (N) 1,722 6.0 -16.5°
Sets 01:19:44 0° 1° (N) 2,607 7.1 -16.2°
